Midland City, AL

5:44 PM CDT on September 26, 2016 (GMT -0500)
Dothan Regional

Weather History for KDHN - August, 2013

Change the Weather History Date:

Saturday, August 10, 2013

  Actual Average Record
Temperature  
Mean Temperature 83 °F 82 °F  
Max Temperature 91 °F 91 °F 100 °F (2007)
Min Temperature 74 °F 72 °F 33 °F (1996)
Cooling Degree Days 18 17  
Month to date cooling degree days 183 170  
Year to date cooling degree days 1462 1551  
Since 1 June cooling degree days 1090 1138  
Growing Degree Days 32 (Base 50)    
Moisture  
Dew Point 73 °F    
Average Humidity 79    
Maximum Humidity 100    
Minimum Humidity 50    
Precipitation  
Precipitation T in 0.14 in 4.80 in (1931)
Month to date precipitation 0.53 1.48  
Year to date precipitation 49.99 35.39  
Sea Level Pressure  
Sea Level Pressure 30.12 in    
Wind  
Wind Speed 4 mph (SE)    
Max Wind Speed 14 mph    
Max Gust Speed 22 mph    
Visibility 10 miles    
Events      
T = Trace of Precipitation, MM = Missing Value Source: NWS Daily Summary

Daily Weather History Graph

Daily Weather History Graph

Search for Another Location

Airport or City:

Trip Planner

Search our weather history database for the weather conditions in past years. The results will help you decide how hot, cold, wet, or windy it might be!

Date:

Astronomy

Aug. 10, 2013 Rise Set
Actual Time 6:04 AM CDT 7:29 PM CDT
Civil Twilight 5:38 AM CDT 7:55 PM CDT
Nautical Twilight 5:07 AM CDT 8:25 PM CDT
Astronomical Twilight 4:35 AM CDT 8:58 PM CDT
Moon 9:31 AM CDT (8/10) 9:31 PM CDT (8/10)
Length of Visible Light 14h 16m
Length of Day
13h 25m
Waxing Crescent, 14% of the Moon is Illuminated
Aug 10
Waxing Crescent
Aug 14
First Quarter
Aug 20
Full
Aug 28
Last Quarter
Sep 5
New

Hourly Weather History & Observations

Time (CDT) Temp. Heat Index Dew Point Humidity Pressure Visibility Wind Dir Wind Speed Gust Speed Precip Events Conditions
12:53 AM 75.9 °F - 73.9 °F 94% 30.09 in 10.0 mi NW 3.5 mph - N/A   Clear
1:53 AM 75.0 °F - 73.0 °F 94% 30.09 in 10.0 mi Calm Calm - N/A   Clear
2:53 AM 75.0 °F - 73.0 °F 94% 30.09 in 10.0 mi Calm Calm - N/A   Clear
3:53 AM 73.9 °F - 72.0 °F 93% 30.09 in 10.0 mi ESE 4.6 mph - N/A   Clear
4:21 AM 73.4 °F - 73.4 °F 100% 30.11 in 10.0 mi ESE 3.5 mph - N/A   Mostly Cloudy
4:53 AM 75.0 °F - 73.0 °F 94% 30.10 in 10.0 mi ENE 3.5 mph - N/A   Scattered Clouds
5:53 AM 73.9 °F - 72.0 °F 93% 30.11 in 10.0 mi Calm Calm - N/A   Scattered Clouds
6:53 AM 75.9 °F - 73.0 °F 91% 30.12 in 10.0 mi Calm Calm - N/A   Clear
7:53 AM 79.0 °F - 73.9 °F 84% 30.12 in 10.0 mi East 6.9 mph - N/A   Clear
8:53 AM 82.0 °F 87.9 °F 73.9 °F 76% 30.14 in 10.0 mi SE 4.6 mph - N/A   Clear
9:53 AM 84.0 °F 91.2 °F 73.9 °F 72% 30.14 in 10.0 mi Calm Calm - N/A   Clear
10:53 AM 86.0 °F 93.8 °F 73.9 °F 67% 30.15 in 10.0 mi SE 3.5 mph - N/A   Clear
11:53 AM 88.0 °F 94.7 °F 72.0 °F 59% 30.14 in 10.0 mi East 5.8 mph - N/A   Scattered Clouds
12:53 PM 89.1 °F 96.0 °F 72.0 °F 57% 30.13 in 10.0 mi ESE 4.6 mph - N/A   Mostly Cloudy
1:53 PM 91.0 °F 96.6 °F 70.0 °F 50% 30.10 in 10.0 mi SE 8.1 mph - N/A   Partly Cloudy
2:53 PM 82.9 °F 88.0 °F 72.0 °F 69% 30.11 in 10.0 mi SSE 13.8 mph 21.9 mph N/A   Mostly Cloudy
3:53 PM 81.0 °F 85.8 °F 73.0 °F 77% 30.10 in 10.0 mi South 8.1 mph - 0.00 in   Overcast
4:53 PM 86.0 °F 91.5 °F 71.1 °F 61% 30.09 in 10.0 mi SSE 13.8 mph - N/A   Partly Cloudy
5:53 PM 86.0 °F 90.7 °F 70.0 °F 59% 30.09 in 10.0 mi South 5.8 mph - N/A   Clear
6:53 PM 82.9 °F 87.5 °F 71.1 °F 67% 30.11 in 10.0 mi SSW 8.1 mph - N/A   Clear
7:53 PM 81.0 °F 85.2 °F 72.0 °F 74% 30.13 in 10.0 mi WSW 4.6 mph - N/A   Partly Cloudy
8:53 PM 79.0 °F - 72.0 °F 79% 30.15 in 10.0 mi Calm Calm - N/A   Clear
9:53 PM 75.0 °F - 73.0 °F 94% 30.14 in 10.0 mi SSE 4.6 mph - N/A   Clear
10:53 PM 77.0 °F - 73.0 °F 88% 30.14 in 10.0 mi Calm Calm - N/A   Clear
11:53 PM 75.0 °F - 73.0 °F 94% 30.14 in 10.0 mi Calm Calm - N/A   Clear